Location: Bielawa
(50.6769°N, 16.6032°E)
Time: 05:21:37
(UTC+02:00)

ISS - Visible Passes

Search period start: 28 May 2018 00:00
Search period end: 07 June 2018 00:00
Orbit: 402 x 407 km, 51.6° (Epoch: 28 May)

Date Brightness Start Highest point End Pass type
(mag) Time Alt. Az. Time Alt. Az. Time Alt. Az.
28 May -1.8 01:07:13 10° W 01:08:21 18° W 01:08:21 18° W visible
28 May -3.7 22:38:20 10° W 22:41:37 77° N 22:44:54 10° E visible
29 May -3.4 00:14:53 10° W 00:17:42 42° SW 00:17:42 42° SW visible
29 May -3.6 21:46:04 10° W 21:49:21 72° N 21:52:38 10° E visible
29 May -3.9 23:22:37 10° WNW 23:25:52 64° SSW 23:27:06 34° SE visible
30 May -1.1 00:59:43 10° W 00:59:43 10° W 00:59:43 10° W visible
30 May -3.9 22:30:22 10° WNW 22:33:39 85° SSW 22:36:30 13° ESE visible
31 May -2.3 00:07:05 10° W 00:09:08 23° WSW 00:09:08 23° WSW visible
31 May -3.7 21:38:06 10° W 21:41:23 80° N 21:44:40 10° E visible
31 May -3.2 23:14:40 10° W 23:17:45 38° SSW 23:18:35 32° S visible
01 Jun -3.7 22:22:20 10° WNW 22:25:34 57° SSW 22:28:02 16° SE visible
01 Jun -1.5 23:59:41 10° WSW 00:00:40 13° WSW 00:00:40 13° WSW visible
02 Jun -2.3 23:06:51 10° W 23:09:28 22° SW 23:10:09 21° SSW visible
03 Jun -2.9 22:14:20 10° W 22:17:21 33° SSW 22:19:40 14° SSE visible
04 Jun -1.5 22:59:41 10° WSW 23:01:01 12° SW 23:01:50 11° SSW visible
05 Jun -1.9 22:06:33 10° W 22:08:57 19° SW 22:11:21 10° S visible
